DW0494 Weather Reports


Display with metric or nautical units.
time (UTC)temp
F
wind
direction
speed
MPH
gust
MPH
rain 1hr
in
rain 24hr
in
rain mn
in
humidity
%
barometer
mb
20220701054904 84 82 0.0 3.0 0.00 0.00 0.00 59 1018.1
20220701054405 83 85 0.0 3.0 0.00 0.00 0.00 61 1018.0
20220701053905 83 218 0.0 2.0 0.00 0.00 0.00 62 1018.1
20220701053404 83 203 0.0 3.0 0.00 0.00 0.00 62 1018.1
20220701052905 82 123 0.0 3.0 0.00 0.00 0.00 62 1018.1
20220701051905 81 158 0.0 2.0 0.00 0.00 0.00 63 1018.1
20220701051404 81 160 0.0 2.0 0.00 0.00 0.00 64 1018.2
20220701050905 81 151 0.0 2.0 0.00 0.00 0.00 64 1018.2
20220701050405 81 161 0.0 2.0 0.00 0.00 0.00 65 1018.2
20220701045904 80 155 0.0 1.0 0.00 0.00 0.00 64 1018.1
20220701045405 80 153 0.0 1.0 0.00 0.00 0.00 63 1018.0
20220701044904 80 150 0.0 1.0 0.00 0.00 0.00 65 1018.0
20220701044404 80 148 0.0 1.0 0.00 0.00 0.00 65 1018.0
20220701043904 80 116 0.0 1.0 0.00 0.00 0.00 64 1017.9
20220701043404 80 86 0.0 0.0 0.00 0.00 0.00 67 1017.9
20220701042904 80 86 0.0 0.0 0.00 0.00 0.00 66 1017.9
20220701042405 79 86 0.0 0.0 0.00 0.00 0.00 67 1017.9
20220701041404 76 86 0.0 1.0 0.00 0.00 0.00 70 1017.9
20220701040904 76 65 0.0 1.0 0.00 0.00 0.00 70 1017.9
20220701040405 76 56 0.0 1.0 0.00 0.00 0.00 70 1017.9
20220701035904 76 118 0.0 0.0 0.00 0.00 0.00 71 1017.9
20220701035404 75 144 0.0 0.0 0.00 0.00 0.00 72 1017.9
20220701034904 75 144 0.0 0.0 0.00 0.00 0.00 71 1017.8
20220701034404 75 144 0.0 0.0 0.00 0.00 0.00 70 1017.8
20220701033904 75 144 0.0 0.0 0.00 0.00 0.00 69 1017.8
20220701033404 75 157 0.0 1.0 0.00 0.00 0.00 68 1017.6
20220701032904 76 154 0.0 3.0 0.00 0.00 0.00 63 1017.6
20220701032404 77 48 0.0 3.0 0.00 0.00 0.00 62 1017.4
20220701031904 76 28 0.0 3.0 0.00 0.00 0.00 63 1017.4
20220701031404 76 30 1.0 3.0 0.00 0.00 0.00 64 1017.4
20220701030905 75 28 0.0 2.0 0.00 0.00 0.00 64 1017.4
20220701030406 75 38 0.0 1.0 0.00 0.00 0.00 65 1017.3
20220701025904 74 33 0.0 1.0 0.00 0.00 0.00 67 1017.3
20220701025404 73 46 0.0 0.0 0.00 0.00 0.00 69 1017.3
20220701024905 73 46 0.0 0.0 0.00 0.00 0.00 69 1017.3
20220701024406 73 46 0.0 0.0 0.00 0.00 0.00 69 1017.3
20220701023906 73 46 0.0 0.0 0.00 0.00 0.00 69 1017.2
20220701023405 74 46 0.0 0.0 0.00 0.00 0.00 70 1017.3
20220701022904 74 46 0.0 0.0 0.00 0.00 0.00 69 1017.2
20220701022405 75 46 0.0 0.0 0.00 0.00 0.00 68 1017.3
20220701021905 75 46 0.0 1.0 0.00 0.00 0.00 69 1017.2
20220701021404 75 47 0.0 1.0 0.00 0.00 0.00 69 1017.3
20220701020905 75 53 0.0 0.0 0.00 0.00 0.00 68 1017.2
20220701020405 75 53 0.0 0.0 0.00 0.00 0.00 67 1017.3
20220701015905 75 53 0.0 0.0 0.00 0.00 0.00 68 1017.3
20220701015404 75 53 0.0 0.0 0.00 0.00 0.00 70 1017.2
20220701014904 75 53 0.0 0.0 0.00 0.00 0.00 69 1017.1
20220701014405 75 53 0.0 0.0 0.00 0.00 0.00 68 1017.2
20220701013904 75 53 0.0 0.0 0.00 0.00 0.00 67 1017.2
20220701013404 75 54 0.0 0.0 0.00 0.00 0.00 67 1017.3
20220701012905 75 54 0.0 0.0 0.00 0.00 0.00 67 1017.3
20220701012404 76 54 0.0 0.0 0.00 0.00 0.00 66 1017.3
20220701011904 76 54 0.0 0.0 0.00 0.00 0.00 65 1017.3
20220701011404 76 54 0.0 0.0 0.00 0.00 0.00 65 1017.3
20220701010905 76 54 0.0 0.0 0.00 0.00 0.00 65 1017.2
20220701010404 75 54 0.0 0.0 0.00 0.00 0.00 65 1017.3
20220701005905 75 54 0.0 0.0 0.00 0.00 0.00 66 1017.2
20220701005404 76 53 0.0 0.0 0.00 0.00 0.00 66 1017.1
20220701004904 76 53 0.0 1.0 0.00 0.00 0.00 64 1017.0
20220701004404 77 53 0.0 1.0 0.00 0.00 0.00 63 1017.0
20220701003904 77 50 0.0 2.0 0.00 0.00 0.00 64 1017.1
20220701003404 76 60 1.0 2.0 0.00 0.00 0.00 65 1017.1
20220701002905 76 50 1.0 2.0 0.00 0.00 0.00 66 1017.1
20220701002404 76 69 0.0 0.0 0.00 0.00 0.00 66 1017.2
20220701001904 76 88 0.0 0.0 0.00 0.00 0.00 66 1017.2
20220701001405 76 88 0.0 0.0 0.00 0.00 0.00 66 1017.2
20220701000904 76 88 0.0 0.0 0.00 0.00 0.00 66 1017.2
20220701000404 76 88 0.0 0.0 0.00 0.00 0.00 65 1017.2
20220630235904 77 88 0.0 0.0 0.00 0.00 0.00 64 1017.2
20220630235405 77 88 0.0 0.0 0.00 0.00 0.00 64 1017.2
20220630234904 77 88 0.0 0.0 0.00 0.00 0.00 64 1017.2
20220630234404 77 88 0.0 0.0 0.00 0.00 0.00 64 1017.2
20220630233904 76 88 0.0 0.0 0.00 0.00 0.00 65 1017.2
20220630233404 77 101 0.0 1.0 0.00 0.00 0.00 64 1017.2
20220630232904 78 46 0.0 2.0 0.00 0.00 0.00 62 1017.2
20220630232405 77 39 0.0 2.0 0.00 0.00 0.00 62 1017.2
20220630231904 77 44 0.0 1.0 0.00 0.00 0.00 63 1017.2
20220630231404 77 36 0.0 0.0 0.00 0.00 0.00 64 1017.1
20220630230905 76 38 0.0 0.0 0.00 0.00 0.00 65 1017.2
20220630230404 76 41 0.0 0.0 0.00 0.00 0.00 66 1017.3
20220630225904 76 41 0.0 0.0 0.00 0.00 0.00 67 1017.3
20220630225404 76 41 0.0 0.0 0.00 0.00 0.00 68 1017.2
20220630224905 76 41 0.0 0.0 0.00 0.00 0.00 68 1017.2
20220630224404 76 41 0.0 0.0 0.00 0.00 0.00 67 1017.2
20220630223904 77 41 0.0 0.0 0.00 0.00 0.00 65 1017.2
20220630223404 77 41 0.0 0.0 0.00 0.00 0.00 64 1017.2
20220630222904 77 55 0.0 0.0 0.00 0.00 0.00 65 1017.1
20220630222404 76 55 0.0 0.0 0.00 0.00 0.00 66 1017.1
20220630221904 77 55 0.0 0.0 0.00 0.00 0.00 66 1017.1
20220630221404 77 55 0.0 0.0 0.00 0.00 0.00 65 1017.1
20220630220904 77 55 0.0 0.0 0.00 0.00 0.00 65 1017.0
20220630220404 78 55 0.0 0.0 0.00 0.00 0.00 65 1017.0
20220630215904 78 55 0.0 0.0 0.00 0.00 0.00 63 1017.0
20220630215405 79 54 0.0 1.0 0.00 0.00 0.00 63 1017.0
20220630214904 79 54 0.0 1.0 0.00 0.00 0.00 61 1017.0
20220630214405 79 65 0.0 1.0 0.00 0.00 0.00 61 1017.0
20220630213904 79 66 0.0 1.0 0.00 0.00 0.00 61 1017.0
20220630213404 79 54 0.0 0.0 0.00 0.00 0.00 62 1017.0
20220630212904 79 54 0.0 0.0 0.00 0.00 0.00 61 1017.0
20220630212405 79 54 0.0 0.0 0.00 0.00 0.00 60 1017.0
20220630211904 80 53 0.0 1.0 0.00 0.00 0.00 60 1017.0
20220630211405 79 58 0.0 1.0 0.00 0.00 0.00 60 1016.9
20220630210905 79 51 0.0 0.0 0.00 0.00 0.00 61 1016.8
20220630210405 79 65 0.0 0.0 0.00 0.00 0.00 62 1016.8
20220630205904 79 58 0.0 0.0 0.00 0.00 0.00 62 1016.8
20220630205404 79 62 0.0 0.0 0.00 0.00 0.00 62 1016.8
20220630204904 78 50 0.0 0.0 0.00 0.00 0.00 62 1016.8
20220630204404 78 54 0.0 1.0 0.00 0.00 0.00 63 1016.8
20220630203905 78 48 0.0 1.0 0.00 0.00 0.00 63 1016.8
20220630203404 78 70 0.0 0.0 0.00 0.00 0.00 62 1016.8
20220630202905 78 47 0.0 0.0 0.00 0.00 0.00 63 1016.8
20220630202404 78 47 0.0 1.0 0.00 0.00 0.00 64 1016.8
20220630201905 78 54 0.0 1.0 0.00 0.00 0.00 65 1016.8
20220630201404 78 55 0.0 1.0 0.00 0.00 0.00 66 1016.8
20220630200905 77 63 0.0 0.0 0.00 0.00 0.00 67 1016.9
20220630200405 77 64 0.0 0.0 0.00 0.00 0.00 68 1017.0
20220630195904 77 64 0.0 0.0 0.00 0.00 0.00 68 1016.9
20220630195405 77 64 0.0 0.0 0.00 0.00 0.00 68 1017.0
20220630194905 77 64 0.0 0.0 0.00 0.00 0.00 69 1016.9
20220630194404 77 64 0.0 0.0 0.00 0.00 0.00 68 1016.9
20220630193904 77 64 0.0 0.0 0.00 0.00 0.00 68 1016.8
20220630193405 78 64 0.0 0.0 0.00 0.00 0.00 68 1016.8
20220630192905 78 74 0.0 0.0 0.00 0.00 0.00 68 1016.7
20220630192407 78 74 0.0 0.0 0.00 0.00 0.00 67 1016.6
20220630191905 78 73 0.0 0.0 0.00 0.00 0.00 66 1016.6
20220630191405 78 73 0.0 0.0 0.00 0.00 0.00 66 1016.6
20220630190904 78 73 0.0 0.0 0.00 0.00 0.00 66 1016.5
20220630190404 79 73 0.0 0.0 0.00 0.00 0.00 65 1016.5
20220630185904 79 73 0.0 0.0 0.00 0.00 0.00 65 1016.5
20220630185405 79 73 0.0 0.0 0.00 0.00 0.00 65 1016.4
20220630184905 79 73 0.0 0.0 0.00 0.00 0.00 65 1016.4
20220630184404 79 73 0.0 0.0 0.00 0.00 0.00 65 1016.3
20220630183904 80 73 0.0 0.0 0.00 0.00 0.00 66 1016.3
20220630183405 80 73 0.0 1.0 0.00 0.00 0.00 66 1016.2
20220630182904 80 73 0.0 1.0 0.00 0.00 0.00 65 1016.3
20220630182404 80 67 0.0 0.0 0.00 0.00 0.00 66 1016.2
20220630181905 80 65 0.0 1.0 0.00 0.00 0.00 66 1016.2
20220630181405 80 78 0.0 1.0 0.00 0.00 0.00 66 1016.2
20220630180905 81 128 0.0 0.0 0.00 0.00 0.00 67 1016.2
20220630180404 81 128 0.0 0.0 0.00 0.00 0.00 66 1016.2
20220630175904 81 128 0.0 0.0 0.00 0.00 0.00 66 1016.2
20220630175404 82 128 0.0 0.0 0.00 0.00 0.00 66 1016.1
20220630174905 82 128 0.0 0.0 0.00 0.00 0.00 65 1016.1
20220630174405 82 128 0.0 0.0 0.00 0.00 0.00 64 1016.1
20220630173904 83 128 0.0 1.0 0.00 0.00 0.00 63 1016.0
20220630173404 83 128 0.0 3.0 0.00 0.00 0.00 62 1015.9
20220630172904 84 193 0.0 3.0 0.00 0.00 0.00 61 1015.9
20220630172404 85 187 0.0 3.0 0.00 0.00 0.00 59 1016.0
20220630171905 85 186 0.0 3.0 0.00 0.00 0.00 58 1015.9
20220630171405 86 191 0.0 2.0 0.00 0.00 0.00 56 1015.8
20220630170904 86 175 0.0 3.0 0.00 0.00 0.00 55 1015.7
20220630170404 86 230 0.0 3.0 0.00 0.00 0.00 54 1015.6
20220630165904 87 182 1.0 3.0 0.00 0.00 0.00 55 1015.7
20220630165404 87 196 0.0 2.0 0.00 0.00 0.00 56 1015.7
20220630164904 87 200 0.0 3.0 0.00 0.00 0.00 56 1015.5
20220630164405 87 151 0.0 3.0 0.00 0.00 0.00 56 1015.4
20220630163904 86 205 1.0 3.0 0.00 0.00 0.00 57 1015.4
20220630163405 87 203 1.0 3.0 0.00 0.00 0.00 55 1015.5
20220630162904 87 173 0.0 3.0 0.00 0.00 0.00 53 1015.4
20220630162404 87 153 0.0 3.0 0.00 0.00 0.00 51 1015.3
20220630161904 88 231 0.0 6.0 0.00 0.00 0.00 51 1015.2
20220630161404 88 189 0.0 6.0 0.00 0.00 0.00 50 1015.2
20220630160904 89 226 0.0 6.0 0.00 0.00 0.00 48 1015.2
20220630160405 89 196 2.0 5.0 0.00 0.00 0.00 46 1015.2
20220630155904 90 185 1.0 5.0 0.00 0.00 0.00 45 1015.1
20220630155404 90 214 0.0 6.0 0.00 0.00 0.00 45 1015.2
20220630154904 91 197 2.0 7.0 0.00 0.00 0.00 44 1015.3
20220630154404 92 181 1.0 7.0 0.00 0.00 0.00 42 1015.3
20220630153905 93 173 0.0 7.0 0.00 0.00 0.00 41 1015.4
20220630153404 94 186 2.0 7.0 0.00 0.00 0.00 39 1015.3
20220630152904 93 148 0.0 6.0 0.00 0.00 0.00 39 1015.4
20220630152404 94 207 1.0 6.0 0.00 0.00 0.00 39 1015.5
20220630151904 94 196 1.0 7.0 0.00 0.00 0.00 38 1015.5
20220630151404 94 211 3.0 7.0 0.00 0.00 0.00 38 1015.5
20220630150904 94 184 1.0 8.0 0.00 0.00 0.00 38 1015.5
20220630150404 94 196 4.0 9.0 0.00 0.00 0.00 37 1015.6
20220630145904 94 170 1.0 9.0 0.00 0.00 0.00 38 1015.7
20220630145404 94 179 2.0 9.0 0.00 0.00 0.00 38 1015.7
20220630144905 94 212 1.0 9.0 0.00 0.00 0.00 37 1015.7
20220630144404 93 209 3.0 9.0 0.00 0.00 0.00 38 1015.9
20220630143904 93 229 2.0 10.0 0.00 0.00 0.00 39 1015.9
20220630143405 93 198 6.0 10.0 0.00 0.00 0.00 38 1015.8
20220630142905 94 214 3.0 13.0 0.00 0.00 0.00 39 1015.9
20220630142404 93 214 4.0 13.0 0.00 0.00 0.00 39 1015.9
20220630141905 94 233 2.0 13.0 0.00 0.00 0.00 40 1015.9
20220630141404 94 184 4.0 13.0 0.00 0.00 0.00 39 1015.9
20220630140905 94 199 3.0 10.0 0.00 0.00 0.00 38 1015.7
20220630140404 94 201 3.0 12.0 0.00 0.00 0.00 38 1015.5
20220630135904 94 202 5.0 12.0 0.00 0.00 0.00 37 1015.4
20220630135404 95 208 4.0 9.0 0.00 0.00 0.00 37 1015.4
20220630134904 95 202 3.0 9.0 0.00 0.00 0.00 38 1015.3
20220630134404 95 211 3.0 9.0 0.00 0.00 0.00 37 1015.3
20220630133905 95 211 2.0 9.0 0.00 0.00 0.00 37 1015.1
20220630133405 95 207 3.0 9.0 0.00 0.00 0.00 36 1015.1
20220630132906 95 204 2.0 7.0 0.00 0.00 0.00 37 1015.1
20220630132405 95 225 2.0 9.0 0.00 0.00 0.00 37 1015.1
20220630131904 95 208 3.0 10.0 0.00 0.00 0.00 37 1015.2
20220630131404 95 230 2.0 10.0 0.00 0.00 0.00 38 1015.1
20220630130905 95 214 0.0 7.0 0.00 0.00 0.00 38 1015.3
20220630130405 95 204 1.0 7.0 0.00 0.00 0.00 36 1015.3
20220630125905 96 190 1.0 7.0 0.00 0.00 0.00 37 1015.5
20220630125404 96 193 3.0 7.0 0.00 0.00 0.00 36 1015.4
20220630124904 96 204 1.0 8.0 0.00 0.00 0.00 37 1015.3
20220630124404 95 152 3.0 8.0 0.00 0.00 0.00 38 1015.2
20220630123904 95 235 2.0 6.0 0.00 0.00 0.00 37 1015.2
20220630123404 95 276 1.0 7.0 0.00 0.00 0.00 38 1015.2
20220630122904 94 226 2.0 7.0 0.00 0.00 0.00 39 1015.3
20220630122404 94 243 2.0 7.0 0.00 0.00 0.00 38 1015.4
20220630121904 95 251 0.0 9.0 0.00 0.00 0.00 38 1015.5
20220630121404 95 250 2.0 9.0 0.00 0.00 0.00 38 1015.7
20220630120904 95 203 2.0 9.0 0.00 0.00 0.00 38 1015.7
20220630120404 95 214 1.0 6.0 0.00 0.00 0.00 38 1015.8
20220630115905 94 203 1.0 5.0 0.00 0.00 0.00 39 1015.7
20220630115404 94 239 1.0 8.0 0.00 0.00 0.00 39 1015.9
20220630114904 94 223 2.0 8.0 0.00 0.00 0.00 38 1015.9
20220630114404 94 195 1.0 9.0 0.00 0.00 0.00 38 1015.9
20220630113904 93 235 3.0 9.0 0.00 0.00 0.00 37 1015.9
20220630113404 94 249 2.0 9.0 0.00 0.00 0.00 38 1016.0
20220630112904 94 204 1.0 6.0 0.00 0.00 0.00 37 1016.1
20220630112404 94 206 2.0 6.0 0.00 0.00 0.00 36 1016.0
20220630111904 95 188 2.0 6.0 0.00 0.00 0.00 37 1016.0
20220630111404 94 216 2.0 6.0 0.00 0.00 0.00 38 1016.0
20220630110904 93 199 2.0 8.0 0.00 0.00 0.00 39 1016.1
20220630110404 93 208 1.0 8.0 0.00 0.00 0.00 39 1016.1
20220630105905 93 236 1.0 8.0 0.00 0.00 0.00 39 1016.2
20220630105404 94 203 3.0 8.0 0.00 0.00 0.00 40 1016.2
20220630104904 94 235 1.0 6.0 0.00 0.00 0.00 39 1016.2
20220630104404 94 206 1.0 9.0 0.00 0.00 0.00 39 1016.3
20220630103904 94 219 2.0 9.0 0.00 0.00 0.00 39 1016.2
20220630103404 94 208 3.0 8.0 0.00 0.00 0.00 39 1016.2
20220630102904 94 204 2.0 8.0 0.00 0.00 0.00 39 1016.3
20220630102404 94 210 2.0 8.0 0.00 0.00 0.00 39 1016.3
20220630101904 94 212 3.0 8.0 0.00 0.00 0.00 39 1016.4
20220630101404 94 208 3.0 8.0 0.00 0.00 0.00 39 1016.5
20220630100905 93 200 1.0 8.0 0.00 0.00 0.00 40 1016.5
20220630100405 93 207 2.0 8.0 0.00 0.00 0.00 41 1016.5
20220630095904 93 232 1.0 8.0 0.00 0.00 0.00 41 1016.5
20220630095404 92 236 2.0 7.0 0.00 0.00 0.00 41 1016.5
20220630094904 92 206 1.0 7.0 0.00 0.00 0.00 42 1016.5
20220630094404 92 213 1.0 7.0 0.00 0.00 0.00 42 1016.6
20220630093905 92 230 1.0 7.0 0.00 0.00 0.00 43 1016.6
20220630093405 91 227 2.0 6.0 0.00 0.00 0.00 43 1016.7
20220630092904 91 305 1.0 6.0 0.00 0.00 0.00 44 1016.7
20220630092405 91 278 1.0 7.0 0.00 0.00 0.00 43 1016.7
20220630091904 91 247 2.0 7.0 0.00 0.00 0.00 43 1016.8
20220630091404 91 258 1.0 6.0 0.00 0.00 0.00 43 1016.7
20220630090904 90 255 1.0 6.0 0.00 0.00 0.00 44 1016.8
20220630090404 90 278 2.0 6.0 0.00 0.00 0.00 44 1016.8
20220630085904 90 269 1.0 3.0 0.00 0.00 0.00 46 1016.9
20220630085405 90 246 1.0 6.0 0.00 0.00 0.00 44 1016.9
20220630084904 90 261 2.0 6.0 0.00 0.00 0.00 46 1016.8
20220630084404 89 235 1.0 6.0 0.00 0.00 0.00 46 1016.8
20220630083904 89 257 0.0 6.0 0.00 0.00 0.00 45 1016.8
20220630083404 89 282 1.0 7.0 0.00 0.00 0.00 44 1016.8
20220630082904 88 240 2.0 7.0 0.00 0.00 0.00 48 1016.8
20220630082405 88 264 1.0 6.0 0.00 0.00 0.00 52 1016.8
20220630081905 87 295 1.0 6.0 0.00 0.00 0.00 54 1016.8
20220630081404 87 248 1.0 6.0 0.00 0.00 0.00 53 1016.8
20220630080904 87 273 1.0 5.0 0.00 0.00 0.00 55 1016.9
20220630080404 87 226 1.0 6.0 0.00 0.00 0.00 57 1016.9
20220630075904 86 225 1.0 6.0 0.00 0.00 0.00 58 1017.0
20220630075404 87 277 1.0 3.0 0.00 0.00 0.00 59 1016.9
20220630074904 87 280 0.0 3.0 0.00 0.00 0.00 60 1017.0
20220630074405 87 272 1.0 3.0 0.00 0.00 0.00 60 1016.9
20220630073904 87 281 1.0 3.0 0.00 0.00 0.00 60 1016.9
20220630073404 87 294 0.0 3.0 0.00 0.00 0.00 60 1016.9
20220630072904 86 232 0.0 3.0 0.00 0.00 0.00 61 1016.9
20220630072404 86 268 1.0 3.0 0.00 0.00 0.00 62 1017.0
20220630071905 85 267 1.0 3.0 0.00 0.00 0.00 63 1017.0
20220630071404 85 275 1.0 3.0 0.00 0.00 0.00 61 1017.1
20220630070904 86 281 0.0 3.0 0.00 0.00 0.00 62 1017.0
20220630070404 85 229 0.0 3.0 0.00 0.00 0.00 63 1017.0
20220630065904 85 278 0.0 2.0 0.00 0.00 0.00 63 1017.1
20220630065405 85 218 0.0 3.0 0.00 0.00 0.00 63 1017.0
20220630064904 84 237 1.0 3.0 0.00 0.00 0.00 64 1017.0
20220630064404 84 232 0.0 2.0 0.00 0.00 0.00 65 1017.0
20220630063904 84 240 1.0 2.0 0.00 0.00 0.00 65 1017.0
20220630063404 83 261 0.0 3.0 0.00 0.00 0.00 66 1017.0
20220630062905 83 238 1.0 3.0 0.00 0.00 0.00 67 1017.1
20220630062404 83 257 1.0 3.0 0.00 0.00 0.00 67 1017.0
20220630061904 84 211 1.0 3.0 0.00 0.00 0.00 64 1017.1
20220630061405 84 194 1.0 3.0 0.00 0.00 0.00 65 1017.1
20220630060904 84 195 1.0 3.0 0.00 0.00 0.00 64 1017.1
20220630060404 84 198 0.0 5.0 0.00 0.00 0.00 64 1017.0
20220630055904 84 193 1.0 5.0 0.00 0.00 0.00 64 1017.0
20220630055404 84 221 0.0 3.0 0.00 0.00 0.00 62 1017.0